Lapse_Rate
8.6 8.8 8.9 8.9 8.4 6.1 5.7 5.3 5.1 5.3 5.3 5.1 5.1 5.5 5.5 5.6 5.3 5.3 5.3 5.4 5.4 4.6 4.2 3.8 3.5 3.4 3.2 2.8 2.7 3.1 3.8 5.8
8.3 8.8 8.9 8.8 7.5 5.8 5.4 5.2 5.1 5.2 5.3 5.6 5.8 5.8 6.1 6.1 5.1 5.1 5.2 5.2 5.5 4.8 4.2 3.9 3.8 3.9 3.9 3.8 4.0 4.5 4.7 7.2
9.0 9.0 9.3 9.1 7.7 6.1 5.6 5.4 5.4 5.3 5.3 5.8 5.9 7.0 6.9 7.4 5.8 5.6 5.2 5.0 5.3 5.2 4.9 4.5 4.5 4.9 5.9 5.5 5.9 6.2 7.9 8.3
9.0 9.0 9.1 8.9 9.5 6.1 5.9 5.7 5.7 5.8 6.7 6.1 7.0 8.6 8.1 8.1 6.8 6.3 6.0 5.6 5.4 6.1 5.7 5.8 5.8 6.4 6.6 6.6 6.7 8.0 7.5 8.5
9.4 8.7 9.0 8.9 8.0 7.0 8.2 7.6 7.8 8.0 9.0 7.7 9.2 8.7 8.2 7.7 7.1 6.6 6.2 6.5 6.7 6.6 6.8 6.3 8.4 8.1 7.5 7.9 7.8 7.6 8.4 8.9
9.2 9.4 8.8 8.5 8.3 8.3 8.8 8.6 8.9 8.9 8.6 8.3 8.0 8.1 8.3 8.6 9.0 8.8 8.9 7.4 8.7 8.4 9.1 9.0 8.7 8.4 8.7 8.2 7.8 7.9 8.3 8.1
8.7 8.6 8.5 8.8 8.8 8.8 9.0 8.9 9.0 9.3 8.5 8.4 8.2 8.3 8.3 9.0 9.1 9.0 9.0 8.9 8.9 8.9 9.0 9.0 8.8 9.0 9.2 9.1 9.0 9.1 8.7 8.3
8.2 8.4 9.0 9.3 8.3 8.9 8.5 9.0 9.0 9.1 9.3 9.2 8.3 8.0 7.9 8.4 8.5 8.6 8.8 9.2 9.3 9.1 8.6 8.0 7.3 8.1 8.2 9.1 9.1 9.1 9.1 9.2
8.0 7.9 8.9 8.7 8.6 9.0 9.1 9.0 9.2 9.0 9.1 9.2 8.9 8.5 8.4 8.7 8.2 8.1 8.8 9.2 9.1 9.0 8.6 8.5 7.7 8.3 7.3 8.4 8.7 8.9 9.0 8.8
8.7 9.5 8.8 9.1 8.9 8.9 9.1 9.3 9.1 9.2 9.3 9.3 8.9 8.6 8.7 8.7 8.0 7.9 9.2 9.0 8.7 7.9 6.8 7.0 7.0 6.9 6.8 6.8 7.4 8.5 8.7 9.0
8.9 9.1 8.4 8.8 9.2 9.1 9.1 9.0 8.5 8.8 9.0 9.2 9.2 8.8 8.9 8.5 8.3 8.6 8.9 8.3 7.7 7.2 7.1 6.9 6.8 6.8 7.0 6.5 6.4 6.6 7.8 9.2
8.2 8.4 8.0 8.6 8.2 8.3 8.3 7.6 8.0 8.7 8.8 8.9 9.1 8.9 9.0 8.5 8.4 8.3 8.7 7.4 7.1 6.9 6.9 7.0 6.8 6.8 8.5 7.8 5.9 6.1 7.2 7.0
6.8 6.7 6.7 6.1 5.7 7.4 7.5 7.8 7.7 7.2 7.8 8.6 8.3 8.3 8.8 8.6 8.0 8.0 8.2 7.1 7.3 7.2 7.0 6.8 6.5 6.8 6.5 6.3 6.4 6.5 6.5 6.3
7.8 7.8 7.8 7.6 7.6 7.8 7.9 7.2 7.2 7.1 7.1 7.4 8.3 8.4 8.2 8.0 7.2 7.1 7.4 7.1 7.0 6.7 6.7 6.4 6.6 6.5 6.0 6.1 5.8 6.0 6.1 5.9
7.0 7.4 7.6 8.1 8.2 7.5 7.3 7.2 6.8 7.2 7.5 7.6 7.8 8.5 8.6 8.2 7.7 7.2 6.8 7.2 6.9 6.7 6.9 6.7 6.0 6.4 6.7 5.1 5.2 5.5 5.2 5.0
8.6 8.4 8.4 8.2 7.6 7.6 7.4 7.6 7.8 7.9 7.6 7.8 7.5 8.6 8.3 8.6 8.1 7.6 6.7 6.5 7.0 7.0 7.6 6.7 6.6 6.6 6.4 7.3 6.1 6.2 4.8 5.2
8.5 8.2 8.7 8.4 8.3 8.0 7.4 7.3 7.5 8.0 7.9 7.6 7.2 7.4 8.4 8.4 8.2 7.4 6.5 6.6 6.5 6.8 6.9 6.9 6.9 6.3 6.5 6.0 6.1 5.8 5.6 5.0
8.2 8.3 8.6 8.2 7.9 7.7 7.4 7.0 7.2 7.6 7.6 7.5 7.8 7.8 7.6 7.5 7.9 7.2 7.0 7.1 7.0 7.1 7.2 7.1 6.8 6.7 6.7 6.2 5.3 4.8 4.5 4.2
8.3 8.5 8.7 8.4 8.0 7.8 7.7 7.3 7.0 7.1 7.5 7.5 7.4 7.6 7.5 7.5 7.2 6.7 6.8 6.9 6.9 7.1 7.1 7.3 7.6 6.7 6.7 6.2 6.3 6.2 6.3 6.2
8.1 8.6 8.6 8.6 8.1 7.6 7.6 7.7 7.9 7.9 7.7 7.7 7.7 7.1 5.7 5.0 5.3 4.8 4.9 4.3 4.6 6.7 7.5 7.1 7.5 7.0 6.8 6.5 5.1 6.7 6.0 6.1
Wind_Speed
18 18 18 17 16 16 13 11 10 9 9 7 6 6 5 4 4 5 5 5 3 2 3 5 8 9 10 10 11 12 15 15
15 18 17 16 15 15 13 11 10 9 7 6 5 5 6 5 5 4 4 4 3 2 2 5 8 9 9 9 9 12 12 11
13 14 16 16 15 14 12 11 10 9 8 6 6 10 12 10 9 5 3 1 2 1 3 7 10 11 11 11 9 10 12 3
10 11 13 16 16 16 14 13 12 13 14 13 12 3 5 3 6 6 6 4 5 7 7 9 11 13 11 11 8 9 11 4
11 7 11 13 16 14 13 14 14 15 12 15 5 3 8 11 13 11 10 9 12 12 12 13 4 9 11 12 11 12 12 4
12 10 6 7 13 13 13 12 13 10 13 8 4 6 9 6 4 4 5 12 4 6 6 1 3 4 5 5 7 6 11 11
12 10 5 4 4 6 5 4 6 6 13 14 6 5 3 3 3 3 5 7 6 3 6 5 1 5 7 6 6 6 6 6
10 11 7 4 4 3 2 2 1 3 3 7 12 4 6 5 5 5 7 7 7 4 4 3 6 8 5 6 7 6 8 6
9 9 9 6 5 4 3 4 5 4 9 8 8 7 6 7 6 6 9 9 6 5 5 8 5 9 5 8 8 9 9 10
7 7 7 3 4 3 4 8 5 7 8 7 11 13 12 9 6 6 11 9 7 5 3 4 4 4 3 3 3 6 9 8
7 4 7 6 4 3 6 8 5 8 12 10 7 9 11 10 6 7 11 8 6 4 4 4 4 3 4 4 4 4 5 8
6 5 7 5 4 4 5 5 7 12 10 11 12 9 8 7 7 9 10 4 4 4 5 4 4 4 5 5 3 3 6 5
8 4 1 3 6 7 4 8 5 3 6 10 7 7 7 8 6 6 8 5 5 6 4 6 4 3 3 4 4 6 6 5
5 4 6 7 2 4 5 2 3 4 8 14 19 16 14 10 7 5 5 4 5 6 6 4 3 5 4 3 4 4 6 8
5 6 7 8 6 3 3 3 3 7 9 6 4 9 8 9 11 8 5 4 4 5 5 7 4 4 5 4 1 4 4 3
6 6 5 4 4 3 6 7 8 6 5 5 5 10 10 10 9 8 6 4 6 6 6 4 5 6 4 5 4 2 0 3
4 6 8 7 6 5 4 6 6 6 7 8 7 6 10 11 12 11 7 6 7 7 6 5 5 4 4 3 4 4 5 2
6 7 8 8 7 7 7 7 7 7 7 8 8 7 6 7 9 7 8 10 10 8 9 8 7 5 4 4 4 3 3 3
7 10 11 9 8 7 7 7 7 8 8 6 7 5 4 6 8 8 7 6 7 10 10 10 9 6 6 4 4 4 3 3
7 9 11 11 9 8 7 7 6 6 5 6 5 6 7 10 10 11 10 11 11 8 9 8 10 8 10 6 3 3 4 3
Wind_Direction
140 143 147 139 135 138 139 137 134 121 111 109 113 115 108 96 82 72 47 17 23 21 36 9 354 349 344 332 323 322 318 310
152 145 150 145 143 144 145 146 145 134 123 131 142 160 160 151 142 102 47 22 357 21 23 330 318 315 310 313 310 303 284 302
149 153 155 152 147 152 152 152 153 150 156 184 208 213 189 157 110 127 118 45 305 212 269 284 291 289 268 278 299 293 345 47
142 158 155 152 154 146 165 163 173 190 188 187 227 170 68 52 163 175 181 199 213 216 243 267 281 275 204 250 273 20 297 42
153 156 151 177 129 171 172 175 187 198 194 189 206 71 175 205 180 193 188 204 218 203 219 241 268 16 341 347 3 322 303 32
148 153 161 211 150 189 179 181 182 164 177 165 263 201 210 200 275 345 220 181 211 219 280 6 77 268 276 286 299 300 316 355
147 143 170 216 189 221 163 134 156 193 144 170 213 301 320 280 275 308 314 314 303 240 256 270 311 276 243 233 275 279 283 291
136 140 156 136 270 86 62 359 107 109 281 173 174 213 296 310 297 259 240 239 255 254 294 341 344 327 318 256 239 266 295 297
126 129 150 162 249 126 262 249 217 267 219 198 181 198 233 245 270 271 276 277 253 241 255 268 235 246 245 240 233 249 232 251
137 165 151 179 201 203 254 253 216 253 272 246 201 199 207 224 248 261 271 259 251 241 213 230 241 243 245 257 278 255 230 227
144 132 142 176 231 290 253 273 294 272 275 285 270 217 213 211 226 264 285 284 252 234 240 210 249 267 281 268 225 226 268 265
92 78 42 32 343 304 252 273 251 232 235 250 258 250 238 215 221 236 243 249 267 254 224 230 215 239 264 279 311 267 216 231
35 30 245 223 222 229 268 251 248 256 251 259 271 260 233 234 226 234 247 236 237 250 243 219 239 241 263 286 265 260 245 223
345 292 245 224 213 239 257 315 308 315 314 298 279 259 249 229 220 224 241 259 262 228 224 253 238 208 211 234 276 285 234 214
281 276 253 249 253 260 314 319 322 289 271 272 289 292 270 228 218 212 213 227 248 250 232 212 225 251 231 167 275 251 319 167
238 273 294 271 271 256 252 261 265 281 291 294 299 301 291 280 259 231 210 205 219 238 247 241 215 224 240 225 189 184 341 328
3 345 313 306 310 310 305 298 297 300 295 293 299 296 292 275 256 239 222 212 212 217 242 239 227 217 208 224 226 190 221 182
346 329 315 324 323 318 311 297 291 292 292 291 283 270 266 278 268 256 238 220 214 210 214 223 238 225 208 223 200 186 180 177
341 334 316 317 314 307 312 314 307 296 293 296 306 302 305 307 325 329 320 297 221 207 208 214 220 214 214 211 220 215 172 173
339 321 322 320 322 325 319 319 306 310 312 305 309 357 4 343 334 330 327 339 343 323 213 206 207 209 209 207 196 201 161 159